Weather History for Ahmedabad, India

Change the Weather History Date:

Friday, August 23, 2013

  Actual Average Record
Temperature  
Mean Temperature 84 °F -  
Max Temperature 91 °F 88 °F 95 °F (2002)
Min Temperature 78 °F 76 °F 73 °F (2005)
Cooling Degree Days 20    
Growing Degree Days 34 (Base 50)    
Moisture  
Dew Point 75 °F    
Average Humidity 75    
Maximum Humidity 89    
Minimum Humidity 54    
Precipitation  
Precipitation 0.00 in 0.17 in - ()
Sea Level Pressure  
Sea Level Pressure 29.64 in    
Wind  
Wind Speed 6 mph ()    
Max Wind Speed 13 mph    
Max Gust Speed -    
Visibility 2.7 miles    
Events Rain    
Averages and records for this station are not official NWS values.
T = Trace of Precipitation, MM = Missing Value Source: Averaged Metar Reports

Daily Weather History Graph

Daily Weather History Graph

Search for Another Location

Airport:

Trip Planner

Search our weather history database for the weather conditions in past years. The results will help you decide how hot, cold, wet, or windy it might be!

Date:

Astronomy

Aug. 23, 2013 Rise Set
Actual Time 6:18 AM IST 7:05 PM IST
Civil Twilight 5:55 AM IST 7:28 PM IST
Nautical Twilight 5:28 AM IST 7:55 PM IST
Astronomical Twilight 5:00 AM IST 8:23 PM IST
Moon 8:35 PM IST (8/23) 8:20 AM IST (8/23)
Length of Visible Light 13h 32m
Length of Day
12h 46m
Waning Gibbous, 94% of the Moon is Illuminated
Aug 23
Waning Gibbous
Aug 28
Last Quarter
Sep 5
New
Sep 12
First Quarter
Sep 19
Full

Hourly Weather History & Observations

Time (IST) Temp. Heat Index Dew Point Humidity Pressure Visibility Wind Dir Wind Speed Gust Speed Precip Events Conditions
12:10 AM 82.4 °F 87.2 °F 71.6 °F 70% 29.65 in 2.5 mi West 4.6 mph - N/A   Haze
12:40 AM 82.4 °F 87.2 °F 71.6 °F 70% 29.65 in 2.5 mi West 3.5 mph - N/A   Haze
1:10 AM 80.6 °F 84.6 °F 71.6 °F 74% 29.65 in 2.5 mi WSW 3.5 mph - N/A   Haze
1:40 AM 80.6 °F 84.6 °F 71.6 °F 74% 29.65 in 2.5 mi WSW 4.6 mph - N/A   Haze
2:10 AM 80.6 °F 85.4 °F 73.4 °F 79% 29.62 in 2.5 mi West 5.8 mph - N/A   Haze
2:30 AM 80 °F - 73 °F 74% 29.64 in 2 mi West 3.5 mph - -   Haze
2:40 AM 80.6 °F 85.4 °F 73.4 °F 79% 29.62 in 2.5 mi West 6.9 mph - N/A   Haze
3:10 AM 80.6 °F 85.4 °F 73.4 °F 79% 29.62 in 2.5 mi West 5.8 mph - N/A   Haze
3:40 AM 78.8 °F - 75.2 °F 89% 29.62 in 2.5 mi West 5.8 mph - N/A   Haze
4:10 AM 78.8 °F - 73.4 °F 83% 29.62 in 2.5 mi West 8.1 mph - N/A   Haze
4:40 AM 78.8 °F - 75.2 °F 89% 29.65 in 2.5 mi West 11.5 mph - N/A   Haze
5:40 AM 78.8 °F - 75.2 °F 89% 29.65 in 2.5 mi West 9.2 mph - N/A   Haze
6:10 AM 78.8 °F - 75.2 °F 89% 29.65 in 2.5 mi West 9.2 mph - N/A   Haze
6:40 AM 78.8 °F - 75.2 °F 89% 29.65 in 2.5 mi West 8.1 mph - N/A   Haze
7:10 AM 78.8 °F - 75.2 °F 89% 29.68 in 2.5 mi WNW 6.9 mph - N/A   Haze
7:40 AM 78.8 °F - 75.2 °F 89% 29.68 in 2.5 mi WNW 5.8 mph - N/A   Haze
8:10 AM 80.6 °F 86.2 °F 75.2 °F 84% 29.68 in 2.5 mi WNW 6.9 mph - N/A   Haze
8:40 AM 80.6 °F 86.2 °F 75.2 °F 84% 29.68 in 2.5 mi WNW 6.9 mph - N/A   Haze
9:40 AM 84.2 °F 92.3 °F 75.2 °F 74% 29.68 in 3.1 mi NW 9.2 mph - N/A   Haze
10:10 AM 84.2 °F 92.3 °F 75.2 °F 74% 29.68 in 3.1 mi NW 9.2 mph - N/A   Haze
10:40 AM 86.0 °F 95.1 °F 75.2 °F 70% 29.68 in 3.1 mi NW 8.1 mph - N/A   Haze
11:30 AM 87 °F - 75 °F 60% 29.68 in 2 mi NW 6.9 mph - -   Haze
11:40 AM 87.8 °F 97.6 °F 75.2 °F 66% 29.68 in 3.1 mi WNW 5.8 mph - N/A   Haze
12:10 PM 87.8 °F 97.6 °F 75.2 °F 66% 29.68 in 3.1 mi WNW 10.4 mph - N/A   Haze
12:40 PM 89.6 °F 102.2 °F 77.0 °F 66% 29.65 in 3.7 mi WNW 11.5 mph - N/A   Scattered Clouds
2:30 PM 90 °F - 75 °F 54% 29.62 in 2 mi West 4.6 mph - -   Mostly Cloudy
2:40 PM 91.4 °F 102.5 °F 75.2 °F 59% 29.59 in 3.7 mi WNW 11.5 mph - N/A   Scattered Clouds
3:10 PM 91.4 °F 105.1 °F 77.0 °F 63% 29.59 in 3.7 mi NW 11.5 mph - N/A   Scattered Clouds
3:40 PM 91.4 °F 105.1 °F 77.0 °F 63% 29.59 in 3.7 mi WNW 12.7 mph - N/A   Scattered Clouds
4:10 PM 91.4 °F 105.1 °F 77.0 °F 63% 29.59 in 3.7 mi West 9.2 mph - N/A   Scattered Clouds
4:40 PM 89.6 °F 99.8 °F 75.2 °F 62% 29.56 in 3.7 mi WNW 10.4 mph - N/A   Mostly Cloudy
5:30 PM 87 °F - 73 °F 56% 29.59 in 2 mi West 4.6 mph - -   Overcast
6:10 PM 87.8 °F 95.6 °F 73.4 °F 62% 29.59 in 2.5 mi West 8.1 mph - N/A   Smoke
7:10 PM 87.8 °F 95.6 °F 73.4 °F 62% 29.59 in 2.5 mi West 5.8 mph - N/A   Light Drizzle
7:40 PM 84.2 °F 92.3 °F 75.2 °F 74% 29.59 in 2.5 mi SW 4.6 mph - N/A   Drizzle
8:10 PM 84.2 °F 94.1 °F 77.0 °F 79% 29.62 in 2.5 mi WSW 3.5 mph - N/A Rain Light Rain
8:30 PM 83 °F - 77 °F 78% 29.62 in 2 mi West 3.5 mph - - Rain Light Rain
8:40 PM 82.4 °F 90.9 °F 77.0 °F 84% 29.62 in 2.5 mi SW 3.5 mph - N/A Rain Light Rain
9:40 PM 82.4 °F 92.4 °F 78.8 °F 89% 29.65 in 2.5 mi SW 3.5 mph - N/A   Light Drizzle
10:10 PM 82.4 °F 90.9 °F 77.0 °F 84% 29.65 in 2.5 mi West 3.5 mph - N/A   Light Drizzle
10:40 PM 82.4 °F 90.9 °F 77.0 °F 84% 29.65 in 2.5 mi West 5.8 mph - N/A   Light Drizzle
11:10 PM 82.4 °F 90.9 °F 77.0 °F 84% 29.65 in 2.5 mi West 6.9 mph - N/A   Haze
11:30 PM 81 °F - 75 °F 77% 29.64 in 2 mi WSW 4.6 mph - -   Haze
11:40 PM 82.4 °F 89.5 °F 75.2 °F 79% 29.65 in 2.5 mi West 4.6 mph - N/A   Haze